CW6261 Weather Reports


time (UTC)temp
C
wind
direction
speed
KPH
gust
KPH
rain 1hr
cm
rain 24hr
cm
rain mn
cm
humidity
%
barometer
mb
20260506180202 20 68 3.2 12.9 0.00 0.00 0.00 77 101.1
20260506175702 19 18 1.6 3.2 0.00 0.00 0.00 78 101.1
20260506174702 20 102 3.2 9.7 0.00 0.00 0.00 77 101.1
20260506174202 20 11 4.8 6.4 0.00 0.00 0.00 78 101.1
20260506173702 18 14 1.6 3.2 0.00 0.00 0.00 79 101.1
20260506172702 18 119 6.4 6.4 0.00 0.00 0.00 79 101.0
20260506172203 18 37 1.6 4.8 0.00 0.00 0.00 79 101.0
20260506171702 18 123 3.2 8.0 0.00 0.00 0.00 80 101.0
20260506171202 17 29 6.4 11.3 0.00 0.00 0.00 82 101.0
20260506170702 17 33 3.2 8.0 0.00 0.00 0.00 82 101.0
20260506170202 17 101 1.6 6.4 0.00 0.00 0.00 85 101.1
20260506165702 17 11 3.2 8.0 0.00 0.00 0.00 84 101.1
20260506165203 16 101 3.2 8.0 0.00 0.00 0.00 85 101.1
20260506164704 16 127 1.6 6.4 0.00 0.00 0.00 86 101.1
20260506163702 16 42 3.2 9.7 0.00 0.00 0.00 89 101.1
20260506163202 16 125 4.8 8.0 0.00 0.00 0.00 90 101.1
20260506162702 16 18 6.4 14.5 0.00 0.00 0.00 93 101.1
20260506161702 15 72 1.6 9.7 0.00 0.00 0.00 94 101.2
20260506161202 15 96 4.8 27.4 0.00 0.00 0.00 94 101.2
20260506160702 15 51 4.8 16.1 0.00 0.00 0.00 94 101.2
20260506160202 15 33 9.7 11.3 0.00 0.00 0.00 95 101.1
20260506155703 16 32 6.4 24.1 0.00 0.00 0.00 94 101.1
20260506155203 16 67 6.4 16.1 0.00 0.00 0.00 94 101.1
20260506154702 16 14 8.0 16.1 0.00 0.00 0.00 93 101.1
20260506154202 17 37 6.4 24.1 0.00 0.00 0.00 93 101.1
20260506153702 17 30 11.3 20.9 0.00 0.00 0.00 92 101.1
20260506153202 17 353 3.2 11.3 0.00 0.00 0.00 92 101.0
20260506152702 17 50 3.2 17.7 0.00 0.00 0.00 92 101.0
20260506152202 17 36 12.9 19.3 0.00 0.00 0.00 92 101.0
20260506151702 17 33 1.6 16.1 0.00 0.00 0.00 92 101.0
20260506151202 17 48 3.2 14.5 0.00 0.00 0.00 92 101.0
20260506150702 17 291 4.8 16.1 0.00 0.00 0.00 92 101.0
20260506150203 18 42 12.9 24.1 0.00 0.00 0.00 91 101.0
20260506145703 18 41 4.8 14.5 0.00 0.00 0.00 91 101.0
20260506145202 19 49 11.3 16.1 0.00 0.00 0.00 91 101.0
20260506144702 20 36 8.0 19.3 0.00 0.00 0.00 90 101.0
20260506144202 21 96 0.0 16.1 0.00 0.00 0.00 87 101.0
20260506143202 25 44 0.0 3.2 0.00 0.00 0.00 86 101.0
20260506142701 24 196 3.2 3.2 0.00 0.00 0.00 86 101.0
20260506141203 23 266 1.6 6.4 0.00 0.00 0.00 90 101.0
20260506140203 23 198 3.2 4.8 0.00 0.00 0.00 90 101.0
20260506135703 23 183 3.2 3.2 0.00 0.00 0.00 90 101.0
20260506135202 23 204 4.8 8.0 0.00 0.00 0.00 91 101.0
20260506134703 23 190 4.8 9.7 0.00 0.00 0.00 91 101.0
20260506133702 23 251 1.6 3.2 0.00 0.00 0.00 92 101.0
20260506133202 23 195 3.2 4.8 0.00 0.00 0.00 93 100.9
20260506132202 23 215 0.0 8.0 0.00 0.00 0.00 93 100.9
20260506131702 22 127 3.2 8.0 0.00 0.00 0.00 93 100.9
20260506131202 22 168 6.4 6.4 0.00 0.00 0.00 93 100.9
20260506130202 22 175 8.0 8.0 0.00 0.00 0.00 94 100.9
20260506125702 22 171 4.8 8.0 0.00 0.00 0.00 95 100.9
20260506125202 22 242 1.6 6.4 0.00 0.00 0.00 95 100.9
20260506124703 22 183 3.2 6.4 0.00 0.00 0.00 96 100.9
20260506124202 22 73 1.6 4.8 0.00 0.00 0.00 96 100.9
20260506123702 22 12 1.6 4.8 0.00 0.00 0.00 96 100.9
20260506123202 22 231 1.6 4.8 0.00 0.00 0.00 96 100.9
20260506122702 22 186 4.8 6.4 0.00 0.00 0.00 96 100.9
20260506122203 22 296 1.6 6.4 0.00 0.00 0.00 96 100.9
20260506121702 22 195 3.2 4.8 0.00 0.00 0.00 96 100.9
20260506121202 22 167 3.2 6.4 0.00 0.00 0.00 97 100.9
20260506120703 22 158 3.2 4.8 0.00 0.00 0.00 97 100.9
20260506120202 22 155 0.0 3.2 0.00 0.00 0.00 96 100.9
20260506115202 22 232 0.0 3.2 0.00 0.00 0.00 96 100.9
20260506114702 22 227 1.6 4.8 0.00 0.00 0.00 96 100.9
20260506114202 22 185 1.6 4.8 0.00 0.00 0.00 96 100.9
20260506113703 22 184 3.2 4.8 0.00 0.00 0.00 96 100.9
20260506113202 22 223 1.6 6.4 0.00 0.00 0.00 96 100.9
20260506112202 22 250 3.2 3.2 0.00 0.00 0.00 96 100.9
20260506111702 22 215 3.2 6.4 0.00 0.00 0.00 96 100.9
20260506111202 22 284 0.0 3.2 0.00 0.00 0.00 96 100.9
20260506110702 22 316 1.6 4.8 0.00 0.00 0.00 96 100.9
20260506110202 22 256 1.6 6.4 0.00 0.00 0.00 95 100.9
20260506105702 22 116 1.6 3.2 0.00 0.00 0.00 95 100.9
20260506105203 22 254 1.6 4.8 0.00 0.00 0.00 95 100.9
20260506104702 22 247 3.2 6.4 0.00 0.00 0.00 95 100.8
20260506104202 22 228 3.2 4.8 0.00 0.00 0.00 95 100.8
20260506103702 22 249 1.6 4.8 0.00 0.00 0.00 94 100.8
20260506103202 22 313 1.6 6.4 0.00 0.00 0.00 94 100.8
20260506102702 23 237 4.8 6.4 0.00 0.00 0.00 93 100.8
20260506102202 23 257 1.6 6.4 0.00 0.00 0.00 93 100.8
20260506101702 23 253 3.2 11.3 0.00 0.00 0.00 93 100.8
20260506101202 23 188 4.8 8.0 0.00 0.00 0.00 92 100.8
20260506100702 23 222 1.6 9.7 0.00 0.00 0.00 92 100.8
20260506100202 23 220 6.4 12.9 0.00 0.00 0.00 91 100.8
20260506095702 23 180 3.2 6.4 0.00 0.00 0.00 91 100.8
20260506095202 23 206 3.2 8.0 0.00 0.00 0.00 91 100.8
20260506094702 23 147 1.6 8.0 0.00 0.00 0.00 90 100.8
20260506094202 23 213 1.6 6.4 0.00 0.00 0.00 90 100.8
20260506093202 23 202 3.2 8.0 0.00 0.00 0.00 90 100.8
20260506092704 23 251 1.6 11.3 0.00 0.00 0.00 90 100.7
20260506092202 23 216 4.8 12.9 0.00 0.00 0.00 90 100.7
20260506091702 23 182 3.2 8.0 0.00 0.00 0.00 90 100.7
20260506091202 23 238 3.2 6.4 0.00 0.00 0.00 89 100.7
20260506090702 23 189 8.0 9.7 0.00 0.00 0.00 89 100.7
20260506090202 23 167 8.0 11.3 0.00 0.00 0.00 90 100.8
20260506085202 23 201 8.0 12.9 0.00 0.00 0.00 90 100.8
20260506084702 23 140 1.6 9.7 0.00 0.00 0.00 90 100.8
20260506084202 23 210 3.2 12.9 0.00 0.00 0.00 90 100.8
20260506083202 23 253 4.8 11.3 0.00 0.00 0.00 89 100.8
20260506082702 23 165 6.4 8.0 0.00 0.00 0.00 89 100.7
20260506081702 23 249 4.8 9.7 0.00 0.00 0.00 89 100.7
20260506081201 23 182 6.4 9.7 0.00 0.00 0.00 89 100.7
20260506080702 23 170 6.4 16.1 0.00 0.00 0.00 89 100.7
20260506080202 23 193 6.4 9.7 0.00 0.00 0.00 89 100.8
20260506073202 23 204 8.0 9.7 0.00 0.00 0.00 88 100.8
20260506072702 23 190 11.3 11.3 0.00 0.00 0.00 88 100.8
20260506072203 23 201 3.2 14.5 0.00 0.00 0.00 88 100.8
20260506071702 23 217 8.0 11.3 0.00 0.00 0.00 88 100.8
20260506071202 23 184 8.0 12.9 0.00 0.00 0.00 88 100.8
20260506070702 23 225 9.7 14.5 0.00 0.00 0.00 88 100.8
20260506070202 23 251 4.8 16.1 0.00 0.00 0.00 88 100.8
20260506062202 23 181 9.7 17.7 0.00 0.00 0.00 88 100.8
20260506061702 23 179 6.4 11.3 0.00 0.00 0.00 88 100.8
20260506061202 23 210 6.4 19.3 0.00 0.00 0.00 88 100.8
20260506060703 23 215 8.0 14.5 0.00 0.00 0.00 89 100.8
20260506051202 23 188 6.4 17.7 0.00 0.00 0.00 89 100.8
20260506050703 23 199 4.8 12.9 0.00 0.00 0.00 89 100.8
20260506050202 23 173 4.8 14.5 0.00 0.00 0.00 89 100.7
20260506044702 23 177 1.6 8.0 0.00 0.00 0.00 89 100.7
20260506044202 23 180 3.2 19.3 0.00 0.00 0.00 89 100.7
20260506043702 23 214 8.0 11.3 0.00 0.00 0.00 89 100.7
20260506042702 23 157 4.8 14.5 0.00 0.00 0.00 88 100.8
20260506042202 23 172 3.2 8.0 0.00 0.00 0.00 88 100.8
20260506041702 23 173 1.6 11.3 0.00 0.00 0.00 88 100.8
20260506041202 23 175 3.2 6.4 0.00 0.00 0.00 88 100.8
20260506040202 23 179 4.8 8.0 0.00 0.00 0.00 87 100.7
20260506035702 24 205 0.0 6.4 0.00 0.00 0.00 87 100.7
20260506035204 24 177 3.2 12.9 0.00 0.00 0.00 87 100.7
20260506034702 24 169 3.2 16.1 0.00 0.00 0.00 87 100.7
20260506034202 24 188 3.2 12.9 0.00 0.00 0.00 86 100.7
20260506033204 24 194 4.8 8.0 0.00 0.00 0.00 86 100.7
20260506032203 24 167 4.8 16.1 0.00 0.00 0.00 85 100.7
20260506031702 25 171 1.6 6.4 0.00 0.00 0.00 85 100.7
20260506031202 25 163 8.0 16.1 0.00 0.00 0.00 84 100.7
20260506030702 25 209 8.0 12.9 0.00 0.00 0.00 84 100.7
20260506030202 25 157 0.0 6.4 0.00 0.00 0.00 83 100.7
20260506025704 25 268 3.2 8.0 0.00 0.00 0.00 82 100.7
20260506025203 25 205 3.2 9.7 0.00 0.00 0.00 82 100.7
20260506024702 25 242 1.6 6.4 0.00 0.00 0.00 81 100.7
20260506024202 25 213 4.8 8.0 0.00 0.00 0.00 81 100.7
20260506023702 25 212 3.2 9.7 0.00 0.00 0.00 80 100.7
20260506023203 25 180 3.2 6.4 0.00 0.00 0.00 80 100.7
20260506022703 25 203 4.8 6.4 0.00 0.00 0.00 80 100.6
20260506022202 25 185 1.6 11.3 0.00 0.00 0.00 79 100.6
20260506021702 25 196 4.8 8.0 0.00 0.00 0.00 79 100.6
20260506021203 25 174 1.6 4.8 0.00 0.00 0.00 79 100.6
20260506020702 25 186 6.4 8.0 0.00 0.00 0.00 79 100.6
20260506020203 25 187 3.2 9.7 0.00 0.00 0.00 79 100.6
20260506015702 25 164 0.0 9.7 0.00 0.00 0.00 79 100.6
20260506015202 25 182 6.4 9.7 0.00 0.00 0.00 78 100.6
20260506014202 26 177 3.2 6.4 0.00 0.00 0.00 78 100.6
20260506013702 26 183 1.6 9.7 0.00 0.00 0.00 78 100.6
20260506012702 26 225 3.2 6.4 0.00 0.00 0.00 77 100.6
20260506011202 26 185 3.2 8.0 0.00 0.00 0.00 76 100.6
20260506010702 26 204 6.4 9.7 0.00 0.00 0.00 76 100.6
20260506010203 26 196 3.2 9.7 0.00 0.00 0.00 75 100.6
20260506005702 26 200 1.6 8.0 0.00 0.00 0.00 74 100.6
20260506005202 27 171 0.0 6.4 0.00 0.00 0.00 73 100.6
20260506004203 27 198 4.8 6.4 0.00 0.00 0.00 71 100.6
20260506003703 27 238 4.8 8.0 0.00 0.00 0.00 70 100.5
20260506003202 27 225 3.2 8.0 0.00 0.00 0.00 69 100.5
20260506002702 27 225 3.2 9.7 0.00 0.00 0.00 69 100.5
20260506002202 27 247 6.4 9.7 0.00 0.00 0.00 69 100.5
20260506001702 27 181 8.0 9.7 0.00 0.00 0.00 69 100.5
20260506001203 27 235 3.2 8.0 0.00 0.00 0.00 69 100.5
20260506000702 27 227 4.8 9.7 0.00 0.00 0.00 69 100.5
20260506000204 27 231 3.2 6.4 0.00 0.00 0.00 69 100.5
20260505235703 27 190 12.9 12.9 0.00 0.00 0.00 69 100.5
20260505235202 27 201 9.7 12.9 0.00 0.00 0.00 69 100.5
20260505233703 27 229 3.2 11.3 0.00 0.00 0.00 69 100.5
20260505233202 27 189 9.7 12.9 0.00 0.00 0.00 69 100.5
20260505232202 27 221 4.8 12.9 0.00 0.00 0.00 69 100.5
20260505231202 27 109 3.2 9.7 0.00 0.00 0.00 68 100.5
20260505230703 27 198 6.4 16.1 0.00 0.00 0.00 68 100.5
20260505230202 27 198 3.2 17.7 0.00 0.00 0.00 68 100.5
20260505225701 27 199 6.4 6.4 0.00 0.00 0.00 67 100.5
20260505225202 28 227 6.4 11.3 0.00 0.00 0.00 66 100.5
20260505224702 28 217 6.4 9.7 0.00 0.00 0.00 65 100.5
20260505223702 28 250 3.2 12.9 0.00 0.00 0.00 65 100.5
20260505223202 28 200 6.4 9.7 0.00 0.00 0.00 65 100.5
20260505222702 27 207 4.8 9.7 0.00 0.00 0.00 65 100.5
20260505222202 27 189 6.4 14.5 0.00 0.00 0.00 65 100.5
20260505221702 27 192 8.0 14.5 0.00 0.00 0.00 66 100.5
20260505220702 27 205 3.2 14.5 0.00 0.00 0.00 66 100.5
20260505215702 28 177 12.9 19.3 0.00 0.00 0.00 65 100.5
20260505215202 28 192 8.0 17.7 0.00 0.00 0.00 65 100.5
20260505214702 28 200 11.3 19.3 0.00 0.00 0.00 65 100.6
20260505214203 28 236 4.8 19.3 0.00 0.00 0.00 65 100.6
20260505213702 28 232 8.0 17.7 0.00 0.00 0.00 64 100.6
20260505213202 27 230 6.4 12.9 0.00 0.00 0.00 66 100.6
20260505212702 27 206 9.7 12.9 0.00 0.00 0.00 66 100.6
20260505212203 27 240 8.0 27.4 0.00 0.00 0.00 66 100.6
20260505211702 28 183 9.7 22.5 0.00 0.00 0.00 65 100.6
20260505211202 27 180 3.2 20.9 0.00 0.00 0.00 67 100.6
20260505210702 27 197 8.0 19.3 0.00 0.00 0.00 67 100.6
20260505210202 27 183 4.8 16.1 0.00 0.00 0.00 67 100.6
20260505205702 27 181 6.4 20.9 0.00 0.00 0.00 67 100.6
20260505205202 27 193 3.2 20.9 0.00 0.00 0.00 67 100.6
20260505203702 27 167 1.6 19.3 0.00 0.00 0.00 68 100.6
20260505202703 27 231 6.4 17.7 0.00 0.00 0.00 68 100.7
20260505202202 27 158 6.4 16.1 0.00 0.00 0.00 69 100.7
20260505201702 27 205 4.8 19.3 0.00 0.00 0.00 69 100.7
20260505201202 27 243 6.4 9.7 0.00 0.00 0.00 69 100.7
20260505200702 27 188 6.4 12.9 0.00 0.00 0.00 70 100.7
20260505200202 27 175 12.9 17.7 0.00 0.00 0.00 69 100.7
20260505195202 27 219 9.7 22.5 0.00 0.00 0.00 69 100.7
20260505194703 27 189 11.3 22.5 0.00 0.00 0.00 68 100.7
20260505194202 27 224 9.7 12.9 0.00 0.00 0.00 68 100.7
20260505193703 27 221 12.9 19.3 0.00 0.00 0.00 68 100.7
20260505192702 27 203 11.3 17.7 0.00 0.00 0.00 67 100.7
20260505192203 27 239 6.4 14.5 0.00 0.00 0.00 67 100.7
20260505191702 27 239 4.8 9.7 0.00 0.00 0.00 68 100.7
20260505191202 27 213 6.4 9.7 0.00 0.00 0.00 68 100.7
20260505190703 26 252 9.7 9.7 0.00 0.00 0.00 68 100.7
20260505190202 26 211 1.6 12.9 0.00 0.00 0.00 70 100.7
20260505185702 26 233 4.8 9.7 0.00 0.00 0.00 68 100.7
20260505185202 26 234 4.8 9.7 0.00 0.00 0.00 70 100.7
20260505184702 26 203 6.4 12.9 0.00 0.00 0.00 70 100.7
20260505184202 26 247 4.8 8.0 0.00 0.00 0.00 72 100.7
20260505183702 26 176 8.0 11.3 0.00 0.00 0.00 72 100.7
20260505183202 25 213 4.8 9.7 0.00 0.00 0.00 72 100.8
20260505182703 25 206 8.0 14.5 0.00 0.00 0.00 73 100.8
20260505182202 25 238 8.0 12.9 0.00 0.00 0.00 74 100.8
20260505181702 25 235 3.2 12.9 0.00 0.00 0.00 74 100.8
20260505181202 24 180 8.0 11.3 0.00 0.00 0.00 76 100.8
20260505180702 24 219 3.2 12.9 0.00 0.00 0.00 76 100.8